[[{"header":{"parameterUnit":"m.s-1","parameterCategory":1,"la1":30.2991,"la2":30.254,"lo1":-89.0895,"lo2":-89.0444,"dy":0.0017,"dx":0.0017,"nx":28,"ny":28,"refTime":"2025-01-07T09:00:00:Z","depth":0,"parameterNumber":2,"parameterNumberName":"U-component_of_WINDS"},"data":[0,0,0,0,0,0,0,0,0,0,0,0,0,0,0,0,0,0,0,0,0,0,0,0,0,0,0,0,0,0,0,0,0,0,0,0,0,0,0,0,0,0,0,0,0,0,0,0,0,0,0,0,0,0,0,0,0,0,1.0474,1.0474,0,1.0452,1.0451,1.0451,1.0443,1.0443,1.0443,1.0443,1.0418,1.0417,1.0417,0,0,0,0,0,0,0,0,0,0,0,0,0,1.0508,1.0507,1.0474,1.0474,1.0473,1.0452,1.0451,1.0451,1.0443,1.0443,1.0443,1.0443,1.0418,1.0417,1.0417,0,0,0,0,0,0,0,0,0,0,0,0,0,1.049,1.0507,1.0474,1.0467,1.0466,1.0452,1.0451,1.0451,1.0443,1.0443,1.0443,1.0443,1.0419,1.0418,1.0416,1.0407,0,0,1.0413,1.0413,0,0,0,0,0,0,0,0,1.0491,1.0489,1.0468,1.0467,1.0466,1.045,1.0454,1.0436,1.0443,1.0452,1.0443,1.0443,1.0429,1.0427,1.0422,1.0406,1.0405,1.0413,1.0412,1.0412,1.0411,0,0,0,0,0,0,0,1.0492,1.049,1.0465,1.0468,1.0467,1.0464,1.0462,1.0451,1.0439,1.0451,1.045,1.0448,1.0428,1.0423,1.0421,1.0404,1.0413,1.0412,1.0411,1.0411,1.038,1.038,0,0,0,0,0,0,1.0495,1.0491,1.0466,1.0464,1.0479,1.0463,1.0461,1.0455,1.044,1.0437,1.0448,1.0447,1.0425,1.0423,1.042,1.0409,1.0412,1.0411,1.041,1.0381,1.038,1.038,0,0,0,0,0,0,1.0496,1.0493,1.0466,1.0477,1.0474,1.0463,1.0456,1.0455,1.045,1.0437,1.0435,1.0445,1.0425,1.0422,1.0411,1.0408,1.041,1.0409,1.0381,1.0381,1.038,1.0385,0,0,0,0,0,0,1.0497,1.0493,1.049,1.0477,1.0473,1.0458,1.0456,1.0454,1.0448,1.0448,1.0434,1.0432,1.0425,1.0413,1.041,1.0406,1.0408,1.0381,1.0381,1.038,1.0385,1.0385,1.0385,0,0,0,0,0,1.0498,1.0491,1.049,1.0487,1.0469,1.0457,1.0455,1.0448,1.0448,1.0444,1.0436,1.0432,1.0409,1.0411,1.0408,1.0405,1.0381,1.0381,1.038,1.0385,1.0385,1.0385,0,0,0,0,0,0,1.0502,1.0489,1.0487,1.0477,1.0468,1.0456,1.0451,1.0448,1.0438,1.0438,1.0429,1.0426,1.0416,1.0409,1.0412,1.0395,1.0395,1.0394,1.04,1.04,1.04,1.0401,1.0407,0,0,0,0,0,1.0502,1.0495,1.0484,1.0475,1.0471,1.0462,1.0457,1.0452,1.0443,1.0439,1.043,1.0421,1.0411,1.0405,1.0396,1.0385,1.0382,1.0381,1.0381,1.0381,1.038,1.0374,1.0374,1.0379,1.0379,1.0379,0,0,1.0501,1.0493,1.0489,1.0476,1.0469,1.0461,1.0459,1.045,1.0444,1.0437,1.0426,1.042,1.0409,1.0398,1.0393,1.0392,1.0378,1.0381,1.0381,1.038,1.0374,1.0373,1.0373,1.0379,1.0379,1.0379,0,0,1.0496,1.0489,1.0481,1.0475,1.0465,1.0459,1.0458,1.0446,1.0442,1.0431,1.0426,1.0419,1.0403,1.0395,1.0389,1.0383,1.0379,1.038,1.038,1.0374,1.0374,1.0374,1.0371,1.0371,1.0379,1.038,1.038,0,1.0495,1.0484,1.0478,1.047,1.0464,1.0459,1.0451,1.0445,1.0432,1.0428,1.0428,1.0409,1.0401,1.0389,1.0388,1.0383,1.0381,1.0381,1.0375,1.0374,1.0374,1.0371,1.0371,1.038,1.038,1.038,1.038,0,1.0484,1.0476,1.0471,1.046,1.0454,1.0446,1.0439,1.0434,1.043,1.0424,1.0414,1.0405,1.0394,1.0391,1.0387,1.0378,1.0378,1.0377,1.0376,1.0373,1.0371,1.037,1.038,1.038,1.038,1.038,0,0,1.0479,1.0466,1.0464,1.046,1.0449,1.0442,1.0435,1.0425,1.0421,1.0413,1.0406,1.0393,1.0392,1.0386,1.0381,1.0376,1.0372,1.0375,1.0375,1.0375,1.0363,1.0364,1.0363,1.037,1.037,1.037,1.0364,0,1.0471,1.0458,1.0453,1.0442,1.0434,1.0431,1.0424,1.0417,1.0412,1.0404,1.0399,1.039,1.0389,1.0385,1.0381,1.0374,1.037,1.0374,1.0363,1.0363,1.0366,1.0362,1.0362,1.0357,1.0363,1.0363,1.0363,0,1.046,1.0453,1.0442,1.0433,1.043,1.0424,1.0416,1.0409,1.0401,1.0398,1.0392,1.0387,1.0379,1.038,1.0369,1.0372,1.0367,1.0364,1.0363,1.0361,1.0362,1.0359,1.0355,1.0354,1.0361,1.0361,1.0361,0,1.0457,1.0445,1.0437,1.0433,1.0423,1.0419,1.0414,1.0407,1.0402,1.0394,1.0391,1.0382,1.0378,1.0371,1.0365,1.0366,1.0354,1.0354,1.0351,1.0351,1.0348,1.0348,1.0342,1.0346,1.0346,1.0346,1.0346,0,1.0449,1.0442,1.0435,1.043,1.0422,1.0417,1.041,1.0405,1.0398,1.0392,1.0388,1.0382,1.0375,1.0368,1.0363,1.0355,1.0353,1.035,1.0348,1.035,1.035,1.0346,1.0346,1.0346,1.0346,1.0346,1.0346,0,1.0444,1.0439,1.043,1.0422,1.042,1.0414,1.0407,1.0402,1.0398,1.039,1.0388,1.0381,1.0373,1.0366,1.0355,1.0352,1.0343,1.0342,1.0346,1.0345,1.0342,1.0343,1.0333,1.0332,1.0337,1.0337,1.0337,0,1.0438,1.0433,1.0425,1.0421,1.0417,1.0411,1.0406,1.0401,1.0397,1.0388,1.0384,1.0376,1.0369,1.0357,1.035,1.0342,1.034,1.0338,1.0339,1.0341,1.034,1.034,1.034,1.0337,1.0337,1.0337,1.0337,0,1.0429,1.0428,1.0422,1.0415,1.041,1.0404,1.0398,1.0395,1.039,1.0384,1.0377,1.0372,1.0362,1.0354,1.0346,1.0341,1.0338,1.0337,1.0336,1.0337,1.0339,1.0338,1.0345,1.0337,1.0337,1.0337,1.0337,1.0337,1.0423,1.0419,1.0413,1.0407,1.0402,1.0397,1.0392,1.0388,1.0382,1.0374,1.0372,1.0364,1.0357,1.0346,1.0342,1.0335,1.0335,1.0333,1.0333,1.0332,1.0332,1.0341,1.0334,1.0334,1.0334,1.0334,1.0334,0,1.0414,1.0411,1.0405,1.0398,1.0393,1.0392,1.0386,1.0382,1.0375,1.037,1.0364,1.0356,1.0349,1.0343,1.0335,1.0331,1.033,1.033,1.0329,1.0328,1.0333,1.0335,1.0331,1.0331,1.0331,1.0331,1.0331,1.0331,1.0408,1.0401,1.0399,1.039,1.0386,1.0379,1.0376,1.0371,1.0367,1.0359,1.0353,1.035,1.0344,1.0336,1.033,1.0328,1.0326,1.0325,1.0323,1.0328,1.0328,1.0328,1.033,1.0325,1.0325,1.0319,1.0319,1.0319]},{"header":{"parameterUnit":"m.s-1","parameterCategory":1,"la1":30.2991,"la2":30.254,"lo1":-89.0895,"lo2":-89.0444,"dy":0.0017,"dx":0.0017,"nx":28,"ny":28,"refTime":"2025-01-07T09:00:00:Z","depth":0,"parameterNumber":3,"parameterNumberName":"V-component_of_WINDS"},"data":[0,0,0,0,0,0,0,0,0,0,0,0,0,0,0,0,0,0,0,0,0,0,0,0,0,0,0,0,0,0,0,0,0,0,0,0,0,0,0,0,0,0,0,0,0,0,0,0,0,0,0,0,0,0,0,0,0,0,-6.2947,-6.2948,0,-6.3124,-6.3126,-6.3128,-6.3054,-6.305,-6.3046,-6.3042,-6.3219,-6.3227,-6.3236,0,0,0,0,0,0,0,0,0,0,0,0,0,-6.2541,-6.2548,-6.2946,-6.2949,-6.2951,-6.3123,-6.3126,-6.3128,-6.3055,-6.305,-6.3045,-6.304,-6.3216,-6.3226,-6.3236,0,0,0,0,0,0,0,0,0,0,0,0,0,-6.2717,-6.2551,-6.2946,-6.2935,-6.2936,-6.3123,-6.3126,-6.3129,-6.3056,-6.305,-6.3044,-6.3038,-6.3212,-6.3225,-6.3238,-6.3444,0,0,-6.3277,-6.3283,0,0,0,0,0,0,0,0,-6.2707,-6.2732,-6.2935,-6.2936,-6.2938,-6.3061,-6.3047,-6.3234,-6.3058,-6.3011,-6.3042,-6.3035,-6.3171,-6.3187,-6.3234,-6.3452,-6.346,-6.3278,-6.3286,-6.3292,-6.3295,0,0,0,0,0,0,0,-6.2695,-6.2724,-6.3016,-6.2938,-6.294,-6.292,-6.2938,-6.3082,-6.3124,-6.3014,-6.3009,-6.3032,-6.317,-6.3221,-6.3237,-6.3462,-6.3278,-6.329,-6.3297,-6.3303,-6.3858,-6.3865,0,0,0,0,0,0,-6.2683,-6.2714,-6.3011,-6.3022,-6.2805,-6.2933,-6.2953,-6.3027,-6.3122,-6.313,-6.3037,-6.3027,-6.3202,-6.3222,-6.3243,-6.3491,-6.3292,-6.3304,-6.3311,-6.3851,-6.3859,-6.3867,0,0,0,0,0,0,-6.2675,-6.271,-6.3003,-6.2867,-6.2903,-6.2946,-6.3031,-6.3034,-6.3085,-6.3139,-6.3146,-6.3082,-6.3198,-6.3225,-6.3395,-6.3496,-6.331,-6.3321,-6.3843,-6.3854,-6.3863,-6.3988,0,0,0,0,0,0,-6.2663,-6.2708,-6.2788,-6.2869,-6.291,-6.3154,-6.3037,-6.3042,-6.3108,-6.3098,-6.3183,-6.3191,-6.3195,-6.3376,-6.3408,-6.351,-6.3331,-6.3834,-6.3848,-6.386,-6.3975,-6.4001,-6.4024,0,0,0,0,0,-6.2649,-6.2815,-6.2792,-6.2828,-6.3011,-6.316,-6.3183,-6.3186,-6.3117,-6.3197,-6.3231,-6.3188,-6.348,-6.3394,-6.3429,-6.3537,-6.3827,-6.3844,-6.3859,-6.3964,-6.3996,-6.4023,0,0,0,0,0,0,-6.2742,-6.2825,-6.2801,-6.2998,-6.3073,-6.3147,-6.3248,-6.322,-6.3315,-6.3301,-6.3299,-6.3319,-6.3495,-6.3532,-6.3435,-6.3741,-6.3643,-6.3666,-6.371,-6.3741,-6.3765,-6.3753,-6.3342,0,0,0,0,0,-6.2786,-6.2901,-6.2967,-6.3134,-6.3173,-6.3205,-6.3269,-6.3266,-6.3342,-6.3373,-6.342,-6.3494,-6.3602,-6.3674,-6.3776,-6.3979,-6.3997,-6.4071,-6.4095,-6.4115,-6.4136,-6.4246,-6.428,-6.3919,-6.3919,-6.3918,0,0,-6.2877,-6.2936,-6.3009,-6.3154,-6.3212,-6.333,-6.3232,-6.3361,-6.3448,-6.3392,-6.3556,-6.3593,-6.3676,-6.3863,-6.3948,-6.39,-6.4239,-6.4135,-6.4151,-6.4161,-6.4265,-6.43,-6.433,-6.3929,-6.3927,-6.3926,0,0,-6.3103,-6.316,-6.3306,-6.3366,-6.3455,-6.3475,-6.351,-6.3589,-6.3612,-6.3777,-6.3737,-6.384,-6.4026,-6.4087,-6.4143,-6.4392,-6.4356,-6.4426,-6.4554,-6.4661,-6.4689,-6.4715,-6.4804,-6.4836,-6.4446,-6.4446,-6.4446,0,-6.3205,-6.3383,-6.3384,-6.3517,-6.3582,-6.3538,-6.3685,-6.3742,-6.386,-6.3905,-6.385,-6.4083,-6.4136,-6.4337,-6.4398,-6.4445,-6.4484,-6.4416,-6.4686,-6.4711,-6.4734,-6.4819,-6.4853,-6.4454,-6.4453,-6.4452,-6.4451,0,-6.3503,-6.3627,-6.3734,-6.3851,-6.3927,-6.4067,-6.4088,-6.4165,-6.4154,-6.4179,-6.4347,-6.4409,-6.4523,-6.457,-6.456,-6.477,-6.4738,-6.4685,-6.4586,-6.4777,-6.4856,-6.4889,-6.4465,-6.4462,-6.446,-6.4458,0,0,-6.3794,-6.3909,-6.3949,-6.4001,-6.4095,-6.4191,-6.4327,-6.4441,-6.4507,-6.4589,-6.4703,-6.4862,-6.4814,-6.4876,-6.4873,-6.4967,-6.5161,-6.4902,-6.4904,-6.4948,-6.5396,-6.5436,-6.5474,-6.5137,-6.5143,-6.5148,-6.5389,0,-6.4027,-6.427,-6.4275,-6.4496,-6.461,-6.457,-6.4689,-6.4759,-6.4786,-6.4886,-6.4914,-6.5028,-6.4955,-6.4993,-6.5084,-6.5118,-6.5251,-6.5101,-6.5242,-6.5247,-6.5224,-6.5515,-6.5558,-6.5782,-6.542,-6.5425,-6.5429,0,-6.4333,-6.4427,-6.466,-6.4739,-6.4787,-6.4894,-6.4998,-6.5094,-6.5173,-6.5185,-6.5256,-6.5239,-6.5376,-6.5273,-6.5463,-6.5361,-6.5418,-6.5444,-6.5453,-6.5466,-6.535,-6.5537,-6.5854,-6.5887,-6.5478,-6.5474,-6.5471,0,-6.4522,-6.4706,-6.487,-6.4915,-6.5011,-6.5087,-6.513,-6.5202,-6.527,-6.5361,-6.5405,-6.5509,-6.5567,-6.5648,-6.5658,-6.5582,-6.5849,-6.5746,-6.5863,-6.5863,-6.5921,-6.5917,-6.6252,-6.5958,-6.5958,-6.5957,-6.5956,0,-6.4783,-6.4927,-6.4956,-6.5057,-6.5217,-6.522,-6.5378,-6.5414,-6.5479,-6.5585,-6.5555,-6.5655,-6.5663,-6.5765,-6.5773,-6.5929,-6.5955,-6.5968,-6.5969,-6.5972,-6.597,-6.601,-6.5995,-6.5966,-6.5964,-6.5962,-6.5961,0,-6.5021,-6.5046,-6.5222,-6.5298,-6.5321,-6.5435,-6.55,-6.5595,-6.5619,-6.5754,-6.5785,-6.5823,-6.5941,-6.596,-6.6098,-6.6104,-6.6291,-6.6275,-6.6265,-6.6263,-6.6379,-6.6368,-6.6751,-6.6801,-6.6474,-6.6477,-6.648,0,-6.5186,-6.5297,-6.5386,-6.5455,-6.5503,-6.5615,-6.5685,-6.5692,-6.5765,-6.5863,-6.5946,-6.6062,-6.6155,-6.6346,-6.6385,-6.6491,-6.6477,-6.6604,-6.6493,-6.6492,-6.6479,-6.6473,-6.6484,-6.6626,-6.6629,-6.6632,-6.6635,0,-6.5477,-6.5484,-6.5587,-6.5694,-6.5779,-6.5863,-6.5942,-6.6001,-6.6018,-6.6102,-6.6224,-6.6296,-6.6438,-6.6553,-6.6658,-6.67,-6.6671,-6.6669,-6.6702,-6.6706,-6.6696,-6.6703,-6.6324,-6.6661,-6.6658,-6.6656,-6.6655,-6.6654,-6.5684,-6.5781,-6.5858,-6.5973,-6.6034,-6.6109,-6.6203,-6.624,-6.6342,-6.646,-6.6457,-6.6591,-6.6665,-6.6803,-6.6853,-6.6956,-6.6915,-6.6962,-6.6974,-6.6985,-6.6997,-6.6679,-6.6975,-6.6974,-6.6973,-6.6973,-6.6972,0,-6.5974,-6.6022,-6.6128,-6.6241,-6.6331,-6.6297,-6.6383,-6.646,-6.6579,-6.6652,-6.6745,-6.6884,-6.6996,-6.7043,-6.7153,-6.7226,-6.7215,-6.7255,-6.7249,-6.726,-6.7028,-6.6989,-6.7262,-6.7262,-6.7262,-6.7262,-6.7261,-6.7261,-6.6135,-6.6297,-6.6313,-6.6503,-6.655,-6.6682,-6.6734,-6.6803,-6.6861,-6.7019,-6.7113,-6.7143,-6.7206,-6.7319,-6.742,-6.743,-6.7472,-6.7518,-6.7523,-6.7305,-6.7276,-6.7248,-6.7211,-6.7527,-6.7527,-6.7746,-6.7748,-6.7749]}]]